Hourly Data Report for October 16, 2016

All times are specified in Local Standard Time (LST). Add 1 hour to adjust for Daylight Saving Time where and when it is observed.

PANGNIRTUNG
NUNAVUT

66°08'36.300" N
65°42'40.500" W
22.60 m
2403049
71826
WXP

Download Data

Hourly Data (October 2016)
Hourly Data Report for October 16, 2016
Temp Definition
°C
Dew Point Temp Definition
°C
Rel Hum Definition
%
Wind Dir Definition
10's deg

Wind Spd Definition
km/h
Visibility Definition
km
Stn Press Definition
kPa
Hmdx Definition


Wind Chill Definition


Weather Definition


TIME
00:00 -4.9 -7.5 82 2 6   100.88   -8 LegendNANA
01:00 -5.6 -8.1 82 15 5   100.89   -8 LegendNANA
02:00 -6.4 -8.7 83 13 7   100.91   -10 LegendNANA
03:00 -5.9 -8.4 83 16 5   100.93   -8 LegendNANA
04:00 -6.2 -8.7 82 34 8   100.95   -10 LegendNANA
05:00 -6.6 -9.2 81 17 4   100.95   -9 LegendNANA
06:00 -7.1 -9.5 83 23 3   100.96   -9 LegendNANA
07:00 -6.9 -8.7 87 16 5   100.96   -9 LegendNANA
08:00 -7.0 -9.3 83 26 2   100.99   -8 LegendNANA
09:00 -7.2 -9.7 82 20 6   101.01   -10 LegendNANA
10:00 -7.6 -10.1 82 23 4   101.02   -10 LegendNANA
11:00 -8.2 -11.0 80 20 3   101.01   -10 LegendNANA
12:00 -7.4 -10.4 79 26 2   101.02   -8 LegendNANA
13:00 -6.7 -10.4 75 10 3   101.04   -8 LegendNANA
14:00 -7.0 -11.1 73 17 2   101.06   -8 LegendNANA
15:00 -7.5 -11.5 73 21 4   101.11   -10 LegendNANA
16:00 -7.7 -11.4 75 15 3   101.16   -9 LegendNANA
17:00 -8.1 -11.6 76 23 4   101.19   -10 LegendNANA
18:00 -8.3 -11.5 77 22 5   101.21   -11 LegendNANA
19:00 -8.3 -10.9 81 23 5   101.24   -11 LegendNANA
20:00 -8.3 -11.4 79 21 4   101.27   -10 LegendNANA
21:00 -8.7 -11.8 78 18 2   101.27   -10 LegendNANA
22:00 -8.4 -11.7 77 24 6   101.27   -12 LegendNANA
23:00 -9.3 -12.5 78 16 4   101.30   -12 LegendNANA

Notes on Data Quality.

Legend

  • E = Estimated
  • M = Missing
  • NA = Not Available
  • ‡ = Partner data that is not subject to review by the National Climate Archives
Date modified: